Apple Cup Yearling Classic - 1st Training Toss 2017

Station: Moxee Dump Rd - T Race

Distance: 4 Miles

Release: 20-Mar-2017 09:30

Weather Release:    Arrival:

Wind at Release: Windy     Wind at Arrival: Windy

Temp at Release: 40F°    Temp at Arrival: °

Lofts: 155

Birds: 608

Clocked: 594

Good Luck to Everyone!
Drops Pos Breeder Pigeon Name Color Sex Ent Arrival Speed To Win Eligible ABC
501 Marengo Creek Farms 2521-AU16-MFC BBWF H 2 10:29:08.02 119.052 00:32:22 Yes
502 Kastle Loft 1606-AU16-KAST Kastle Rate Hike BB H 4 10:29:10.72 118.962 00:32:25 Yes
503 Ed Kehl 0307-AU16-WFA BC H 9 10:29:11.15 118.947 00:32:25 Yes
504 Kfly Racing Pigeon Loft 1682-AU16-KFLY Martinen x Hutchins BB C 4 10:29:11.23 118.945 00:32:25 Missing
505 Val & Bill 1608-CU16-WCW BC H 9 10:29:16.57 118.766 00:32:30 Yes
506 Bynum Family Lofts 0160-AU16-BFL BB H 4 10:29:16.98 118.752 00:32:31 Yes
507 A-Lin Loft 45106-AU16-AA BB H 9 10:29:17.37 118.739 00:32:31 Yes
508 Warbird Loft 6308-AU16-FH Supercrack Legacy BC H 8 10:29:18.77 118.693 00:32:33 Yes
509 Applis Loft 14353-AU16-AA Gentle Everdeen BB H 3 10:29:21.17 118.613 00:32:35 Yes
510 Jb & D 1391-IF16-CCC BB H 6 10:29:46.56 117.773 00:33:00 Missing
511 Huan Qiu Zhang 0146-IF16-JNC BC H 3 10:29:48.40 117.713 00:33:02 Yes
512 Ruybal Family Loft 16429-AU16-PUEB BB H 3 10:29:50.94 117.629 00:33:05 Yes
513 Ken Easley & Son Racing 4513-AU16-EASL Revelation BB C 19 10:30:35.93 116.174 00:33:50 Yes
514 Doncia 24970-AU16-FOYS BB H 3 10:31:17.29 114.867 00:34:31 Missing
515 American Lofts 7561-AU16-CORP W#2 BRNZ H 7 10:31:18.13 114.841 00:34:32 Yes
516 Ganus Family Loft 0676-AU16-GFL BB H 8 10:31:21.43 114.738 00:34:35 Yes
517 Crooked Arrow Loft 6886-AU16-NYKA BC H 8 10:31:23.48 114.674 00:34:37 Yes
518 Wareagle Loft 0232-AU16-WEL PIED H 3 10:31:25.54 114.610 00:34:39 Yes
519 Nick & Sons 16494-AU16-FILA BB H 4 10:31:32.21 114.403 00:34:46 Missing
520 Lobster Boat Loft 6050-IF16-CMP BC H 1 10:31:35.60 114.298 00:34:49 Yes
521 Mc Cormick Loft 0752-AU16-WEF BLK H 2 10:31:38.91 114.196 00:34:53 Yes
522 Cal-Tex Loft 2756-AU16-MTZ DC H 2 10:31:40.95 114.133 00:34:55 Yes
523 Greek Connection 0071-AU16-GREK 3395x220 BB H 10 10:31:54.70 113.710 00:35:09 Yes
524 Afernhill 47075-AU16-AA BB H 2 10:31:56.32 113.661 00:35:10 Missing
525 Sugar Land Farms 0520-AU16-UVI BB H 2 10:31:58.83 113.584 00:35:13 Yes
526 Alpha & Omega Lofts 1616-AU16-AA BC H 1 10:32:00.73 113.526 00:35:15 Missing
527 Crooked Arrow Loft 6887-AU16-NYKA BC H 9 10:32:12.78 113.160 00:35:27 Yes
528 Nick & Sons 10578-AU16-MTHD RC H 5 10:32:14.62 113.104 00:35:28 Yes
529 Me Fui ! & Gallo Loft 81840-AU16-ARPU BB H 1 10:32:15.60 113.074 00:35:29 Yes
530 Ramon Guerrero & Refujio Martinez 0093-AU16-EVER BC H 7 10:32:16.97 113.033 00:35:31 Yes
531 Yo Yo Spetz 1629-AU16-JEDD BC H 6 10:32:18.99 112.972 00:35:33 Missing
532 Huan Qiu Zhang 0151-IF16-JNC RB H 4 10:32:20.47 112.927 00:35:34 Yes
533 Himes Family Loft 59561-AU16-ARPU BC H 5 10:32:21.45 112.897 00:35:35 Yes
534 Flyhome Loft 1631-AU16-FLYH BB H 12 10:32:25.67 112.770 00:35:39 Yes
535 Yo Yo Spetz 0238-AU16-VIP BB H 7 10:32:26.81 112.736 00:35:41 Yes
536 Modud 1237-AU16-SD BBWF H 8 10:32:27.93 112.702 00:35:42 Yes
537 Ramon Guerrero & Refujio Martinez 0394-AU16-SKI BC H 8 10:32:41.53 112.295 00:35:55 Yes
538 Bob Bostwick 0662-AU16-COCO BB H 3 10:32:47.75 112.109 00:36:02 Yes
539 Fl Lin Loft 77779-AU16-ARPU PIED H 6 10:32:49.51 112.057 00:36:03 Yes
540 Flyhome Loft 18464-AU16-JEDD DC H 13 10:33:00.89 111.720 00:36:15 Yes
541 Ganus Family Loft 0657-AU16-GFL BB H 9 10:33:02.99 111.658 00:36:17 Yes
542 Igor & Sons Loft 10468-AU16-HOOD DC H 5 10:33:03.58 111.640 00:36:17 Yes
543 Bird Dog Syndicate 2 0571-AU16-FVC BC H 5 10:34:00.67 109.981 00:37:14 Yes
544 Modud 1223-AU16-SD BB H 9 10:36:33.97 105.759 00:39:48 Yes
545 Ed Kehl 0982-AU16-WFA BB H 10 10:36:39.94 105.602 00:39:54 Missing
546 Ken Easley & Son Racing 4524-AU16-EASL Nora's Kid BB H 20 10:36:56.51 105.166 00:40:10 Yes
547 Roy Kinser 23583-AU16-FOYS BBWF H 2 10:36:59.18 105.096 00:40:13 Yes
548 Dj Loft Of Utah 46883-AU16-ARPU Familia FIGO GRIZ H 2 10:37:05.81 104.923 00:40:20 Missing
549 Arnold Swain 0484-AU16-YAK YakimaMan BC H 3 10:37:11.51 104.775 00:40:25 Yes
550 Flyhome Loft 18425-AU16-JEDD BB H 14 10:37:20.90 104.531 00:40:35 Yes
551 Marengo Creek Farms 2522-AU16-MFC PIED H 3 10:37:24.43 104.440 00:40:38 Yes
552 Wiltz & Canto 48082-AU16-AA DC H 6 10:37:36.59 104.127 00:40:50 Yes
553 Ganus Family Loft 0660-AU16-GFL BC H 10 10:37:36.69 104.124 00:40:50 Yes
554 Crooked Arrow Loft 6893-AU16-NYKA RB H 10 10:38:51.22 102.246 00:42:05 Yes
555 Huan Qiu Zhang 0170-IF16-JNC BCWF H 5 10:39:03.82 101.935 00:42:18 Yes
556 Bob Lehman 0594-IF16-PGC RC H 2 10:40:11.73 100.291 00:43:26 Yes
557 Nanez Family Lofts 44187-AU16-AA GRANDCHILD IRON CLAD BB H 10 10:42:48.06 96.702 00:46:02 Yes
558 Yo Yo Spetz 1626-AU16-JEDD 1 Code 626 BCWF H 8 10:44:00.43 95.126 00:47:14 Yes
559 H N R Walker 0706-AU16-YAK The Dude BC H 3 10:44:21.72 94.672 00:47:36 Yes
560 Bynum Family Lofts 0111-AU16-BFL BB H 5 10:45:39.29 93.054 00:48:53 Yes
561 Vandenbossche Loft 6049-IF16-CMP Buster/Klass BC H 4 10:48:39.55 89.500 00:51:53 Yes
562 Paine-Rose 0146-AU16-GSF BB H 3 10:58:11.70 79.823 01:01:25 Yes
563 John Partridge 0390-AU16-PASO BB H 3 10:58:16.76 79.747 01:01:31 Yes
564 Dj Loft Of Utah 46919-AU16-ARPU Piloto Vermelho RB H 3 10:58:18.47 79.721 01:01:32 Missing
565 Floridian Loft 2590-AU16-SCHE DEN 90 BC H 11 11:18:00.22 65.183 01:21:14 Yes
566 Flyhome Loft 18423-AU16-JEDD BLAK H 15 11:18:34.30 64.842 01:21:48 Missing
567 Greek Connection 0070-AU16-GREK 3395x220 BB H 11 11:19:12.41 64.465 01:22:26 Yes
568 Roy Kinser 23580-AU16-FOYS BB H 3 11:19:38.00 64.214 01:22:52 Yes
569 Little Reata Loft 16229-AU16-JETT BB H 11 11:19:41.16 64.183 01:22:55 Yes
570 Racing Pigeon Mall 0635-AU16-RPM BB H 4 11:19:45.09 64.145 01:22:59 Yes
571 Applis Loft 14337-AU16-AA Redbull 337 BB H 4 11:19:49.38 64.103 01:23:03 Yes
572 A P C Loft 16334-AU16-APC BB H 3 11:20:00.29 63.997 01:23:14 Yes
573 Kfly Racing Pigeon Loft 1683-AU16-KFLY Lynch x Rico/Ruby BB H 5 11:20:04.45 63.957 01:23:18 Missing
574 Silvercreek Loft 1779-CU16-SILV GRIZ H 7 11:20:10.83 63.895 01:23:25 Yes
575 Dave Harrett 1968-AU16-JEDD BB H 4 11:20:16.95 63.836 01:23:31 Yes
576 Val & Bill 1653-CU16-WCW BB H 10 11:20:26.24 63.747 01:23:40 Yes
577 Floridian Loft 2564-AU16-SCHE DEN 64 BB H 12 11:20:29.98 63.711 01:23:44 Yes
578 P N A Loft 0260-AU16-SDM BB H 3 11:20:32.10 63.690 01:23:46 Missing
579 Cactus Lofts 0938-AU16-AONE BB H 9 11:20:32.56 63.686 01:23:46 Missing
580 Nanez Family Lofts 44159-AU16-AA Grandson IRON CLAD PIED H 11 11:20:38.63 63.628 01:23:52 Yes
581 James Wiese 4029-AU16-TVC BB H 1 11:20:46.00 63.557 01:24:00 Missing
582 Tres Coronas Loft 16288-AU16-SYV Blue Mamba Jr BB H 4 11:20:50.86 63.511 01:24:05 Yes
583 Dream Loft-Silvercreek 41005-AU16-AA BB H 3 11:20:53.82 63.482 01:24:08 Yes
584 Bird Dog Syndicate 2 0020-AU16-BURG BB H 6 11:22:35.99 62.522 01:25:50 Yes
585 Valhalla Loft 0343-AU16-WSJ BC H 7 11:23:42.19 61.916 01:26:56 Missing
586 Baldwin / Tilson 6377-AU16-TENT BBWF H 3 11:57:31.32 47.722 02:00:45 Missing
587 Val & Bill 1611-CU16-WCW BB H 11 12:27:45.67 39.604 02:30:59 Missing
588 Fl Lin Loft 4371-AU16-ARPU BB H 7 12:33:08.74 38.439 02:36:23 Yes
589 Nanez Family Lofts 6768-AU16-NFL Iron-Clad x Clockwork Blu BB H 12 12:55:28.79 34.261 02:58:43 Yes
590 Panther Lake / Sundown Lofts 0986-AU16-EVER GRIZ H 2 13:04:11.28 32.868 03:07:25 Yes
591 Greek Connection 0082-AU16-GREK PBx430 BB H 12 13:48:19.05 27.253 03:51:33 Missing
592 Nanez Family Lofts 6767-AU16-NFL THE IRON CLAD FAMILY BB H 13 15:05:39.90 20.973 05:08:54 Yes
593 Floridian Loft 2573-AU16-SCHE DEN 73 BB H 13 15:40:00.57 19.027 05:43:14 Yes
594 Nanez Family Lofts 6618-AU16-NFL RIK COOLS - DARK HORSE DC H 14 17:45:43.52 14.201 07:48:58 Yes

There are 466 bird records

Note: These Race Results are unofficial and subject to change until verified by the Race Committee and declared final.


Click for forecast!